Location: Utrecht
(52.0907°N, 5.1214°E)
Time: 00:39:57
(UTC+02:00)

MOZHAYETS 4 - Pass Details

Date: 03 July 2022
Orbit: 660 x 678 km, 98.2° (Epoch: 18 August)

Event Time Altitude Azimuth Distance (km) Brightness Sun altitude
Exits shadow 04:05:52 - 175° (S) 2,563 10.2 -8.8°
Reaches altitude 10° 04:07:00 10° 177° (S) 2,107 9.8 -8.7°
Maximum altitude 04:11:33 61° 258° (WSW) 765 7.8 -8.3°
Drops below altitude 10° 04:16:08 10° 339° (NNW) 2,113 10.8 -7.9°
Sets 04:18:24 0° 343° (NNW) 3,028 11.7 -7.7°
